Temperature
20 20 20 20 18 17 19 19 19 19 18 18 18 18 18 17 17 17 17 17 17 17 17 17 17 17 17 17 17 17 17 17 17 17 17 17 17 17 17 17 17 17 17 17 17 18 18 18 18
20 20 20 20 17 18 19 19 19 19 19 19 18 18 17 17 17 17 17 17 17 17 17 17 17 17 17 17 17 17 17 17 17 17 17 16 16 16 17 17 17 17 17 17 17 17 17 17 17
20 20 20 17 18 18 19 19 19 19 19 19 18 17 17 17 17 17 17 17 17 17 17 17 17 17 17 17 17 17 17 17 17 16 16 16 16 16 16 16 16 16 16 17 17 17 17 17 17
20 20 20 17 18 19 19 19 19 19 19 18 18 17 17 17 17 17 17 17 17 17 17 17 16 16 17 17 17 17 16 16 16 16 16 16 16 16 16 16 16 16 16 16 16 16 17 17 17
21 20 18 18 19 19 19 19 19 19 18 18 17 17 16 17 17 17 17 17 17 17 17 16 16 16 16 16 16 16 16 16 16 16 16 16 16 16 16 16 15 15 16 16 16 16 16 16 17
21 18 17 18 19 19 19 19 19 18 18 18 17 16 16 17 17 17 17 17 17 17 16 16 16 16 16 16 16 16 16 16 15 15 15 15 15 15 15 15 15 15 15 16 16 16 16 16 16
20 17 18 18 18 19 19 19 19 18 18 18 18 16 16 17 17 17 17 17 17 16 16 16 16 16 16 16 16 16 15 15 15 15 15 15 15 15 15 15 15 15 15 16 16 16 16 16 16
21 17 18 18 19 19 20 19 19 19 18 18 18 17 16 17 17 17 17 17 17 16 16 16 16 16 16 16 15 15 15 15 15 15 15 15 15 15 15 15 15 15 15 15 15 16 16 16 16
21 17 18 18 19 19 19 19 19 19 18 18 18 18 17 17 17 17 17 17 17 16 16 16 16 16 16 16 16 15 15 15 15 15 15 15 15 15 15 15 15 15 15 15 15 15 16 16 16
20 17 19 19 19 19 19 19 19 19 18 17 17 18 17 17 17 17 17 17 17 17 16 16 16 16 16 16 16 16 16 16 15 15 15 15 15 15 15 15 15 15 15 15 15 15 16 16 16
20 19 20 20 20 20 19 19 19 18 17 18 18 18 17 17 17 17 17 17 17 17 16 16 16 16 16 16 16 16 16 16 16 15 15 15 15 15 15 15 15 15 15 15 15 16 16 16 16
20 20 20 20 20 20 20 19 19 19 19 19 19 18 18 17 17 17 17 17 17 17 17 16 16 16 16 16 16 16 16 16 16 15 15 15 15 15 15 15 15 15 15 15 16 16 16 16 16
20 20 20 20 20 20 20 19 19 18 19 19 18 18 18 17 17 17 17 17 17 17 17 16 16 16 16 16 16 16 16 16 16 15 15 15 15 15 15 15 15 15 15 15 15 16 16 16 16
20 20 20 20 20 20 19 18 19 18 18 18 18 18 18 18 18 17 17 17 17 17 17 16 16 16 16 16 16 16 16 16 16 16 16 16 15 15 15 15 15 15 15 16 16 16 16 15 15
20 19 19 19 20 19 19 18 18 18 18 18 18 18 18 18 18 18 18 17 17 17 17 17 16 16 16 16 16 16 16 16 16 16 16 16 16 15 15 15 15 15 16 16 16 16 15 15 15
20 19 18 19 19 19 19 18 18 18 18 18 18 18 18 18 18 18 18 17 17 17 17 17 16 16 16 16 16 16 16 16 16 16 16 16 16 16 16 15 15 15 15 15 15 15 15 15 15
18 18 18 19 19 19 19 18 18 18 18 17 18 18 18 18 18 18 18 17 17 17 17 17 16 16 16 16 16 16 16 16 16 16 16 16 16 16 16 15 15 15 15 15 15 15 15 15 15
18 18 19 19 19 18 18 18 17 17 18 17 17 18 18 18 18 18 18 17 17 17 17 17 16 16 16 16 16 16 16 16 15 16 16 16 16 16 16 16 15 15 15 15 15 15 15 15 15
19 19 18 19 19 18 18 18 17 17 17 17 17 18 18 18 18 18 18 18 17 17 17 17 17 16 16 16 16 16 15 15 15 15 16 16 15 15 15 15 15 15 15 15 15 15 15 15 15
19 19 18 19 19 19 18 17 17 17 17 17 17 18 18 18 18 18 18 18 17 17 17 17 17 16 16 16 16 16 15 15 15 15 15 15 15 15 15 15 15 15 15 15 15 15 15 15 15
19 19 18 18 18 18 18 17 17 17 17 17 18 18 18 18 18 18 18 18 18 17 17 17 17 16 16 16 16 15 15 15 15 15 15 15 15 15 15 15 15 15 15 15 15 15 15 15 15
19 19 19 19 17 17 18 16 17 16 16 16 17 18 18 18 18 18 18 18 18 18 17 17 17 17 16 16 16 16 15 15 15 15 15 15 15 15 15 15 15 15 15 15 15 15 15 15 15
19 19 19 18 17 17 17 16 16 16 16 16 17 17 18 18 19 19 19 18 18 18 17 17 17 17 16 16 16 16 15 15 15 15 15 15 15 15 15 15 15 15 15 15 15 15 15 15 15
19 18 17 15 16 16 17 16 16 15 16 17 17 18 18 19 19 19 19 18 18 18 17 17 17 17 16 16 16 16 16 15 15 15 15 15 15 15 15 15 15 15 15 15 15 15 15 15 15
18 17 16 16 15 16 16 16 16 17 17 17 17 18 18 19 19 19 18 18 18 18 18 17 17 17 17 16 16 16 16 16 15 15 15 15 15 15 15 15 15 15 15 15 15 15 15 15 15
18 17 16 16 16 15 16 16 17 18 18 18 18 18 18 18 19 19 19 18 18 18 18 17 17 17 17 16 16 16 16 16 16 15 15 15 15 15 15 15 15 15 15 15 15 15 15 15 15
17 16 16 15 16 16 15 16 17 18 18 17 18 18 18 18 19 19 19 19 18 18 18 17 17 17 17 16 16 16 16 16 16 15 15 15 15 15 15 15 15 15 15 15 15 15 15 15 15
17 16 15 15 16 16 16 16 17 18 18 17 17 17 18 18 19 19 19 19 18 18 18 17 17 17 17 17 16 16 16 16 16 16 16 15 15 15 15 15 15 15 15 15 15 15 15 15 15
17 16 15 14 15 15 16 16 18 18 18 17 17 18 18 19 19 19 19 19 19 18 18 18 17 17 17 17 16 16 16 16 16 16 15 15 15 15 15 15 15 15 15 15 15 15 15 15 15
17 17 15 15 15 14 15 16 18 17 17 17 18 18 19 19 19 19 19 19 18 18 18 18 17 17 17 17 17 16 16 16 16 16 15 15 15 15 15 15 15 15 15 15 15 15 15 15 14
Wind_Speed
2 3 3 3 5 5 3 2 1 2 3 3 5 6 7 5 3 3 1 2 3 3 5 6 7 8 8 9 10 10 11 11 10 10 10 10 10 9 9 9 10 10 10 9 9 9 9 9 9
1 2 3 4 5 4 2 2 3 2 4 3 5 6 6 5 3 3 1 2 4 4 5 6 9 9 9 10 11 11 11 10 10 10 9 9 8 8 8 8 8 8 9 8 8 8 9 9 9
1 2 4 4 4 3 2 1 4 4 4 3 4 5 4 3 2 2 1 3 4 4 5 6 9 9 9 10 10 10 10 10 9 9 9 8 7 7 7 7 7 7 7 7 8 7 8 8 8
3 4 5 5 5 1 1 2 4 5 5 5 4 5 4 3 1 3 4 5 5 4 5 7 9 9 9 9 9 9 10 9 9 8 8 7 7 7 7 7 6 6 6 7 7 7 7 7 8
4 4 5 4 3 2 2 2 2 4 3 3 4 5 3 4 5 7 6 5 5 4 4 6 8 8 9 10 9 9 9 9 8 7 7 7 7 6 6 6 6 6 6 6 6 6 6 7 7
4 4 5 3 2 2 2 2 3 5 4 3 4 4 2 2 5 5 5 5 4 4 4 5 7 8 8 9 9 8 8 8 8 7 7 6 6 6 5 5 5 5 6 6 6 6 6 6 6
4 4 4 4 2 1 1 2 3 5 5 3 4 5 2 1 3 5 5 5 4 4 4 5 5 6 6 7 7 7 7 7 7 7 6 6 6 6 5 5 5 5 5 6 6 6 6 6 6
4 5 4 2 3 1 2 3 3 4 4 3 3 6 4 3 4 6 6 5 4 3 3 3 5 6 6 6 6 6 6 6 6 6 6 6 6 5 5 4 4 4 5 5 5 6 6 6 7
4 5 3 4 5 3 3 3 3 3 5 3 3 3 4 8 8 7 5 3 2 2 2 2 3 4 4 4 5 6 6 7 7 6 6 6 6 6 5 4 3 4 5 4 5 5 6 7 8
4 4 3 3 5 5 4 4 4 4 4 3 5 5 7 8 8 6 4 3 2 1 1 1 1 2 3 4 4 5 5 6 6 5 5 5 5 5 5 6 6 6 6 5 6 6 7 7 7
3 4 2 2 3 5 5 4 3 6 3 4 7 8 8 7 6 5 4 3 3 2 1 0 0 1 2 3 3 3 4 4 4 5 4 4 5 5 6 6 7 8 7 7 7 7 7 7 7
4 2 2 2 3 4 5 5 4 3 2 4 8 10 8 8 6 5 5 4 2 2 2 1 0 1 1 2 2 3 3 3 3 3 3 3 3 3 4 4 5 6 5 6 6 5 7 8 8
3 2 3 4 6 5 6 5 4 3 4 8 9 8 7 6 5 4 4 3 3 2 2 1 1 1 1 2 2 3 2 2 2 3 3 3 3 2 3 3 5 5 5 5 5 5 6 7 8
2 4 4 4 5 3 5 3 4 2 5 8 8 6 5 6 5 4 4 3 3 3 3 1 1 2 3 2 2 2 2 2 3 3 2 3 3 3 3 3 4 4 5 6 6 6 6 6 6
4 5 5 3 3 3 5 3 1 4 7 7 6 5 5 4 4 5 5 5 5 3 3 3 3 3 4 3 3 3 2 3 3 3 3 4 4 4 4 3 3 4 6 8 7 7 7 6 6
4 4 2 2 2 3 4 2 3 5 8 7 6 5 4 4 5 5 5 5 5 4 4 3 3 4 4 3 3 3 4 5 4 4 4 5 5 6 6 4 3 4 7 6 5 5 6 6 5
4 2 2 2 2 3 4 4 3 6 8 7 7 6 5 5 4 4 5 5 5 5 5 4 5 5 4 4 4 5 5 5 5 5 5 5 5 6 6 4 4 6 6 4 5 4 4 5 6
3 2 2 3 2 4 4 4 3 6 7 8 7 6 6 7 7 6 5 5 5 5 6 6 5 5 5 4 4 4 4 4 5 5 5 5 5 6 7 6 5 6 5 4 5 5 5 4 5
5 4 3 4 2 4 5 5 6 7 7 7 7 7 7 8 6 5 5 5 5 5 6 6 6 4 4 3 3 2 2 2 3 4 6 5 5 6 6 5 5 5 4 4 5 5 6 4 3
4 3 2 2 1 3 3 4 5 6 8 8 9 9 9 7 5 5 6 6 6 6 6 6 5 5 4 3 3 2 2 2 1 2 5 6 5 5 5 5 4 4 4 5 4 4 3 2 2
3 5 4 3 1 2 1 4 4 5 5 5 7 8 8 10 9 8 7 7 7 7 7 7 6 5 4 4 3 3 3 3 3 3 3 5 5 6 6 6 5 4 4 4 3 4 4 3 2
3 4 5 4 3 1 1 3 6 4 5 7 9 8 9 9 8 8 8 8 8 8 7 6 6 5 4 5 5 4 3 2 1 1 2 4 6 6 6 6 6 5 3 4 3 3 3 4 2
4 2 3 3 4 1 0 2 7 2 6 10 11 11 10 10 10 10 10 10 8 8 7 7 6 5 4 5 6 5 4 2 1 2 3 4 4 5 5 6 5 4 3 3 3 3 3 2 3
5 6 6 5 4 1 3 4 6 5 8 7 9 11 11 10 10 9 8 7 7 6 6 7 7 5 4 5 5 6 6 4 3 2 2 2 2 3 4 5 5 4 3 3 3 3 4 3 3
5 6 3 3 2 5 3 3 8 7 7 8 10 11 11 10 10 10 9 9 9 8 8 7 7 6 5 5 5 5 6 5 5 3 2 2 1 1 2 3 3 3 3 4 4 4 3 3 3
4 7 6 4 4 4 1 5 7 6 5 5 6 7 9 10 10 11 11 11 10 10 9 8 8 6 6 6 5 4 5 4 3 3 3 3 2 1 2 3 4 4 4 4 5 4 3 3 3
6 4 6 5 2 1 5 6 8 2 2 0 3 6 9 10 11 11 10 10 10 10 10 10 9 7 6 6 5 4 4 4 4 3 3 2 2 2 3 4 4 4 4 5 5 4 3 4 4
6 8 5 5 3 3 5 5 5 5 3 1 3 6 7 8 10 10 10 10 9 9 8 8 8 8 6 6 5 5 4 4 4 4 4 3 2 3 4 4 4 4 4 5 5 4 4 5 4
4 4 4 4 5 4 3 6 6 6 5 5 6 6 7 9 10 10 9 9 8 8 8 8 8 7 6 6 5 5 4 4 4 4 4 3 3 4 4 4 4 4 4 4 4 4 4 5 4
5 6 7 5 3 4 3 7 6 5 5 5 5 4 5 8 8 9 9 8 8 9 9 9 8 8 7 7 6 5 5 5 4 4 4 4 4 4 4 4 5 4 4 4 4 5 4 5 4
Wind_Direction
351 85 85 61 58 55 53 9 53 64 55 50 59 74 82 70 71 106 332 59 87 67 63 87 97 100 101 104 100 96 95 94 97 103 104 103 104 104 103 102 100 99 99 96 92 89 90 90 86
85 107 62 62 79 72 21 6 70 71 128 123 65 62 69 67 66 93 60 74 80 81 76 92 97 98 98 101 102 100 100 98 99 102 102 101 101 102 99 100 101 100 99 96 91 90 87 84 81
119 73 78 68 81 120 127 74 108 88 85 82 70 53 65 72 91 118 134 108 81 70 78 95 100 99 98 97 99 99 99 99 99 101 101 99 100 103 104 102 104 102 100 95 90 89 89 85 78
81 50 56 65 71 38 137 152 134 115 73 53 83 68 55 27 109 130 122 107 91 70 82 96 97 95 94 96 98 98 98 98 99 99 100 99 98 105 105 105 105 103 100 96 87 85 87 83 79
62 75 64 57 46 13 33 112 110 95 81 62 86 87 51 6 85 109 111 103 100 81 79 94 100 94 94 94 94 95 96 95 92 92 96 98 95 96 99 100 99 100 99 95 86 83 84 81 78
55 67 82 93 61 32 37 59 92 89 96 90 92 94 67 54 99 112 104 97 95 88 71 76 96 96 93 92 91 90 90 91 91 87 89 91 91 92 95 98 96 97 98 95 87 80 79 77 73
95 85 105 125 113 70 104 79 93 104 102 105 112 98 95 116 118 115 102 91 78 77 68 51 55 67 75 79 81 84 83 83 85 86 86 84 84 85 89 95 101 102 98 93 87 82 77 76 76
113 97 89 117 134 132 106 87 79 92 100 96 99 127 159 174 125 103 91 80 68 57 50 41 42 47 44 45 62 70 71 71 78 78 76 75 70 67 68 69 83 95 93 92 91 87 84 81 78
91 79 132 178 166 159 131 109 80 66 92 72 64 121 143 127 116 104 90 73 65 65 34 30 27 35 33 25 42 48 54 56 56 56 60 56 46 41 38 40 66 91 93 87 86 88 88 81 73
84 113 187 194 169 149 127 115 127 93 80 80 76 77 102 114 123 126 133 145 158 188 299 -0 2 9 15 17 35 34 42 47 46 44 45 46 42 36 36 38 48 66 72 70 72 79 79 78 71
98 138 146 99 139 127 119 109 109 122 135 175 154 143 130 126 133 143 158 168 189 200 244 241 59 2 22 23 26 32 39 42 42 44 49 51 49 44 42 43 42 48 53 53 57 67 75 78 80
91 63 101 106 106 107 124 120 104 129 181 159 148 145 141 146 157 165 171 178 178 184 222 260 153 84 43 47 53 52 42 40 38 39 54 69 62 47 45 51 47 48 51 56 61 71 77 79 83
80 76 56 85 88 93 98 98 112 89 98 111 121 131 145 158 168 174 174 177 176 187 209 225 151 123 86 57 51 68 49 46 39 39 52 88 91 73 66 56 54 55 63 70 74 76 79 79 79
104 88 79 71 79 77 100 87 96 132 123 119 132 150 162 171 171 161 162 175 182 189 189 168 131 132 112 84 77 75 61 54 62 58 64 88 98 96 84 66 57 57 68 78 82 81 82 77 78
92 82 55 44 81 108 106 60 173 160 139 139 154 168 178 190 182 185 187 181 178 175 155 148 141 117 106 93 87 87 75 74 76 75 75 88 101 109 102 87 69 66 80 85 83 76 77 77 73
72 76 66 314 113 134 124 222 224 157 150 163 178 186 196 207 204 207 193 174 165 153 148 156 134 113 102 94 90 80 68 66 59 66 76 89 103 116 111 101 87 89 91 89 84 75 75 70 70
52 115 198 271 174 142 157 225 219 164 164 182 192 198 207 213 218 207 187 174 166 160 147 134 121 116 108 94 83 76 69 61 53 59 68 82 100 115 115 109 101 101 91 83 91 76 85 86 83
184 174 206 224 209 152 186 231 211 183 180 193 198 205 210 214 218 199 183 172 158 146 135 133 123 115 108 92 76 60 53 45 46 50 60 82 100 110 111 107 101 102 92 81 88 91 76 81 87
158 162 203 239 205 161 210 234 223 197 193 199 203 208 214 222 221 186 174 159 143 137 139 146 137 135 123 103 95 82 59 27 28 36 50 70 96 109 114 111 104 103 101 106 107 101 89 76 78
141 156 222 291 131 161 216 259 243 206 207 204 202 208 211 213 201 183 173 164 164 164 163 156 152 150 139 123 119 116 110 73 44 27 42 49 76 105 118 114 111 110 109 104 107 114 108 83 58
178 186 199 194 71 71 102 308 259 239 221 209 205 206 205 204 199 190 181 179 175 177 178 171 167 157 145 132 109 83 60 43 32 25 21 21 55 86 108 117 115 113 118 129 131 127 125 126 61
217 219 179 152 125 268 145 279 275 242 234 223 217 208 209 206 197 189 184 184 187 189 178 167 164 156 150 145 136 130 124 113 36 18 35 32 49 74 98 110 113 114 116 127 141 127 121 132 128
195 123 124 131 134 50 353 211 283 259 240 235 223 213 209 203 195 191 188 187 186 180 171 167 159 153 149 148 145 134 124 127 91 61 66 52 42 59 84 99 108 112 110 118 123 119 116 126 142
125 77 62 54 75 297 230 192 278 236 225 232 219 213 206 199 194 189 179 169 171 169 164 160 157 156 154 151 146 146 145 142 124 94 81 59 45 46 67 88 94 104 108 113 119 117 119 120 120
98 96 49 10 4 257 249 205 253 254 235 223 215 209 201 191 184 177 170 170 174 172 169 164 162 164 162 158 156 159 160 157 157 155 137 114 77 58 58 85 92 95 109 113 112 108 110 115 116
158 141 155 191 223 278 289 238 257 267 265 235 213 196 185 182 181 182 181 179 180 177 171 169 172 171 168 165 167 165 161 157 163 164 153 149 147 141 111 103 100 99 106 107 105 97 100 99 103
138 156 157 135 162 276 283 286 301 294 341 233 167 165 180 184 185 186 182 180 180 178 178 177 174 171 172 170 164 164 166 165 170 162 149 151 152 135 117 109 104 99 101 104 105 98 97 97 91
140 141 111 124 152 255 295 286 262 284 278 260 190 186 189 183 183 182 180 181 182 181 175 170 171 173 172 167 169 172 172 173 167 153 157 163 151 127 120 111 105 100 101 103 100 97 94 96 87
109 109 117 127 152 161 267 277 232 241 236 222 222 205 189 186 185 183 183 180 173 166 166 169 170 170 171 169 168 164 169 166 161 164 173 167 148 139 136 132 122 115 110 105 107 103 105 103 91
159 164 148 155 200 174 188 270 275 250 238 215 220 210 192 186 182 179 174 166 166 169 173 176 176 177 179 172 166 169 165 159 162 172 176 162 153 145 142 138 132 129 121 120 126 126 117 116 112
Height
1503 1503 1504 1505 1508 1517 1521 1518 1515 1515 1516 1518 1517 1517 1519 1522 1525 1531 1529 1526 1526 1526 1526 1526 1526 1527 1527 1527 1527 1528 1528 1529 1530 1530 1531 1532 1533 1534 1535 1536 1536 1537 1538 1539 1539 1540 1541 1542 1543
1504 1504 1505 1506 1515 1527 1524 1517 1516 1516 1517 1518 1518 1520 1521 1524 1525 1527 1527 1527 1527 1527 1527 1527 1528 1528 1528 1528 1529 1529 1529 1530 1531 1531 1532 1532 1533 1535 1535 1536 1537 1538 1539 1539 1540 1541 1542 1543 1543
1504 1505 1506 1509 1519 1526 1523 1517 1516 1517 1518 1519 1520 1522 1524 1526 1527 1528 1528 1529 1529 1529 1529 1529 1529 1529 1529 1530 1530 1530 1531 1531 1531 1532 1532 1533 1534 1535 1536 1537 1538 1539 1540 1540 1541 1542 1543 1544 1544
1505 1506 1507 1515 1521 1520 1517 1517 1516 1517 1519 1520 1522 1524 1526 1528 1528 1529 1529 1530 1531 1531 1530 1530 1530 1531 1531 1531 1531 1532 1532 1532 1533 1533 1533 1534 1535 1536 1536 1537 1538 1539 1540 1541 1542 1543 1544 1545 1545
1505 1506 1514 1522 1521 1518 1517 1517 1517 1518 1520 1522 1523 1526 1528 1530 1530 1530 1531 1532 1532 1532 1532 1532 1532 1533 1533 1533 1533 1533 1534 1534 1534 1534 1535 1535 1536 1537 1537 1538 1539 1540 1541 1541 1542 1543 1544 1545 1546
1506 1508 1522 1528 1523 1519 1518 1518 1519 1520 1522 1523 1524 1527 1530 1531 1531 1532 1533 1534 1534 1534 1534 1534 1534 1535 1535 1535 1535 1535 1536 1536 1536 1536 1536 1536 1537 1538 1538 1539 1540 1541 1541 1542 1543 1544 1545 1546 1547
1508 1513 1522 1524 1524 1521 1519 1519 1520 1521 1523 1524 1525 1528 1531 1532 1533 1534 1534 1535 1536 1536 1536 1536 1537 1537 1537 1537 1537 1537 1537 1538 1538 1537 1538 1538 1538 1539 1539 1540 1541 1541 1542 1543 1544 1545 1546 1546 1548
1508 1513 1522 1524 1524 1522 1520 1520 1522 1523 1524 1526 1527 1528 1531 1533 1534 1535 1536 1537 1537 1538 1538 1538 1539 1539 1539 1539 1539 1539 1539 1540 1540 1540 1540 1540 1540 1540 1541 1541 1542 1542 1543 1544 1545 1546 1546 1547 1548
1509 1518 1525 1523 1522 1521 1520 1521 1523 1524 1525 1526 1527 1529 1531 1533 1534 1536 1537 1538 1539 1540 1540 1541 1541 1541 1541 1542 1542 1542 1542 1542 1542 1542 1541 1542 1542 1542 1542 1543 1543 1544 1544 1545 1546 1546 1547 1548 1549
1510 1521 1519 1516 1516 1518 1520 1521 1523 1525 1526 1527 1528 1530 1532 1534 1535 1537 1538 1539 1540 1541 1542 1543 1543 1543 1543 1544 1544 1544 1544 1544 1544 1544 1544 1544 1544 1544 1544 1544 1545 1545 1546 1546 1547 1547 1548 1549 1550
1510 1516 1514 1515 1515 1517 1520 1522 1523 1525 1527 1527 1528 1530 1532 1535 1536 1538 1539 1540 1542 1543 1543 1544 1544 1545 1545 1545 1545 1545 1546 1546 1546 1546 1546 1545 1546 1546 1546 1546 1546 1547 1547 1548 1548 1549 1550 1550 1551
1512 1514 1514 1516 1517 1518 1520 1522 1524 1525 1527 1527 1529 1531 1533 1535 1537 1539 1540 1541 1543 1544 1544 1545 1546 1546 1546 1547 1547 1547 1547 1547 1547 1547 1547 1547 1548 1548 1548 1548 1548 1548 1549 1549 1550 1550 1551 1552 1553
1513 1515 1516 1517 1518 1520 1521 1523 1525 1526 1527 1529 1531 1533 1535 1536 1538 1540 1541 1542 1544 1544 1545 1546 1546 1547 1548 1548 1548 1548 1549 1549 1549 1549 1549 1549 1549 1550 1550 1550 1550 1550 1551 1551 1551 1552 1553 1554 1554
1515 1516 1517 1519 1519 1521 1523 1525 1526 1528 1529 1530 1532 1534 1536 1537 1539 1540 1541 1543 1544 1545 1546 1547 1547 1548 1549 1549 1549 1550 1550 1550 1550 1551 1551 1551 1551 1551 1551 1552 1552 1552 1552 1553 1553 1554 1555 1555 1556
1515 1518 1520 1521 1521 1523 1525 1528 1527 1528 1529 1531 1533 1535 1537 1538 1539 1540 1542 1543 1544 1545 1546 1547 1548 1549 1549 1550 1550 1551 1551 1551 1552 1552 1552 1553 1553 1553 1553 1553 1554 1554 1555 1555 1555 1556 1557 1557 1558
1517 1523 1528 1524 1522 1524 1528 1533 1527 1528 1529 1531 1533 1535 1536 1538 1539 1541 1542 1543 1545 1546 1547 1548 1549 1550 1550 1551 1552 1552 1553 1553 1553 1553 1554 1554 1554 1555 1555 1555 1555 1556 1556 1557 1557 1558 1558 1559 1560
1525 1531 1530 1527 1523 1524 1527 1530 1527 1528 1529 1531 1532 1534 1536 1538 1539 1541 1542 1544 1545 1546 1548 1549 1550 1550 1551 1552 1553 1553 1554 1554 1554 1555 1555 1555 1556 1556 1556 1557 1557 1557 1558 1559 1559 1560 1560 1561 1561
1530 1530 1530 1529 1523 1524 1527 1528 1526 1527 1528 1530 1532 1533 1535 1536 1538 1540 1542 1544 1545 1547 1548 1549 1550 1551 1552 1553 1554 1554 1555 1555 1555 1556 1556 1556 1556 1557 1557 1558 1558 1559 1560 1560 1561 1561 1562 1563 1563
1522 1526 1529 1526 1521 1525 1527 1527 1526 1526 1527 1529 1530 1532 1533 1535 1537 1539 1541 1543 1545 1547 1548 1550 1551 1552 1553 1554 1554 1555 1556 1556 1556 1557 1557 1557 1557 1558 1558 1559 1559 1560 1561 1562 1562 1563 1563 1564 1565
1521 1526 1528 1525 1522 1524 1527 1527 1524 1524 1524 1525 1527 1529 1531 1533 1536 1538 1540 1542 1544 1546 1548 1550 1551 1553 1554 1554 1555 1556 1556 1557 1557 1558 1558 1558 1558 1559 1559 1560 1560 1561 1562 1563 1563 1564 1565 1565 1566
1521 1525 1525 1526 1524 1524 1528 1530 1525 1522 1522 1524 1525 1527 1529 1531 1533 1536 1538 1541 1543 1546 1548 1550 1551 1553 1554 1555 1556 1556 1557 1558 1558 1558 1559 1559 1559 1560 1560 1560 1561 1562 1563 1564 1564 1565 1566 1566 1567
1523 1517 1519 1523 1531 1536 1532 1543 1527 1522 1521 1521 1522 1523 1525 1528 1531 1534 1536 1539 1542 1544 1547 1549 1551 1553 1554 1555 1556 1556 1557 1558 1558 1559 1559 1560 1560 1561 1561 1562 1562 1563 1564 1565 1565 1566 1567 1567 1568
1517 1515 1519 1523 1530 1537 1535 1541 1533 1523 1522 1518 1517 1519 1521 1524 1528 1531 1534 1537 1540 1543 1546 1549 1551 1553 1554 1555 1556 1557 1557 1558 1559 1559 1560 1560 1561 1562 1562 1563 1563 1564 1564 1565 1566 1566 1567 1567 1568
1514 1519 1525 1531 1536 1545 1536 1540 1535 1524 1517 1512 1512 1514 1517 1520 1524 1528 1532 1535 1539 1542 1545 1548 1550 1552 1553 1555 1556 1557 1557 1558 1559 1559 1560 1561 1562 1562 1563 1563 1564 1565 1565 1565 1566 1567 1567 1568 1568
1516 1530 1545 1546 1551 1548 1535 1536 1530 1512 1508 1507 1508 1509 1513 1517 1521 1525 1529 1533 1536 1540 1543 1546 1549 1551 1553 1554 1556 1557 1558 1558 1559 1560 1561 1561 1562 1563 1564 1564 1565 1565 1566 1566 1566 1567 1567 1568 1568
1518 1525 1544 1552 1553 1547 1536 1536 1520 1507 1504 1503 1504 1506 1510 1514 1518 1522 1526 1530 1534 1538 1541 1545 1548 1550 1552 1554 1555 1557 1558 1559 1559 1560 1561 1562 1563 1564 1564 1565 1565 1566 1566 1566 1567 1567 1568 1568 1568
1519 1525 1526 1539 1542 1547 1541 1529 1514 1504 1503 1503 1503 1505 1508 1511 1515 1519 1523 1527 1532 1536 1539 1543 1546 1549 1551 1553 1555 1556 1557 1559 1560 1561 1562 1562 1563 1564 1565 1565 1566 1566 1566 1567 1567 1568 1568 1568 1569
1512 1519 1530 1538 1548 1550 1540 1533 1524 1508 1505 1503 1503 1504 1506 1509 1513 1517 1521 1525 1529 1534 1537 1541 1545 1547 1550 1552 1554 1556 1557 1559 1560 1561 1562 1563 1563 1564 1565 1566 1566 1567 1567 1567 1568 1568 1568 1569 1569
1517 1521 1527 1535 1538 1548 1548 1535 1509 1505 1502 1503 1502 1503 1505 1508 1511 1515 1519 1523 1527 1532 1536 1539 1543 1546 1548 1551 1553 1555 1557 1558 1559 1560 1562 1563 1564 1564 1565 1566 1567 1567 1567 1568 1568 1568 1569 1569 1569
1509 1515 1523 1535 1539 1541 1543 1533 1501 1501 1500 1500 1501 1502 1504 1507 1510 1513 1517 1521 1525 1529 1533 1537 1541 1544 1547 1549 1552 1554 1556 1557 1559 1560 1561 1562 1563 1564 1565 1566 1567 1567 1567 1568 1569 1569 1569 1570 1570